Zurück zum Katalog

NOAA 16 DEB

AktivSSO
NORAD 42354·DEBRIS·🇺🇸 United States

Gestartet Sep 21, 2000 von Vandenberg Space Force Base

Loading…

Nächste Überflüge (nächste 24 Stunden)

TLE

AktuellSource: Space-Track

Epoche: Sep 14, 2026, 05:45 UTC

1 42354U 00055QW  26257.23989688  .00008063  00000-0  38118-2 0  9993
2 42354  99.1413   8.5246 0024292  81.0127 279.3796 14.19808956533195

Verfolge NOAA 16 DEB in Echtzeit mit AllMySat

Download on the App Store